Voltar ao catálogo

STARLINK-34753

AtivoComunicaçõesSSO
NORAD 64946·PAYLOAD·🇺🇸 United States

Lançado Jul 26, 2025 de Vandenberg Space Force Base

Loading…

Próximas Passagens (próximas 24 horas)

TLE

AtualizadoSource: CelesTrak SupGP

Época: Sep 14, 2026, 21:04 UTC

1 64946C 25158Q   26257.87826389  .00019518  00000+0  60594-3 0  2570
2 64946  97.2844 116.1884 0001776  88.0440 134.2999 15.33425678    11

Acompanhe STARLINK-34753 em tempo real com AllMySat

Download on the App Store